EDDMLOWI

Guest
Details From EDDM - Muenchen Franz-Josef Strauss
To LOWI - Innsbruck Kranebitten
Flight Number -
Tags decoded
Created
Modified
Stats Distance 68 nm / 126 km
Max Altitude 0 ft / 0 m
Waypoints 2
Social Downloads 0
Likes 0
Share VATSIM

Download

Looking for another format? Having issues loading an existing format? Contact us
Advertisement - Login to hide

Notes

Requested: EDDM / LOWI Unmatched points: /

Route

EDDM LOWI

ID Type Via Altitude Latitude Longitude Leg Dist Tot Dist Heading (true) Name
O EDDM APT - 0 ft / 0 m 48.35379˚ 11.78612˚ - 0 nm - Muenchen Franz-Josef Strauss
O LOWI APT - 0 ft / 0 m 47.26023˚ 11.34397˚ 68 nm 68 nm 195° / 195° Innsbruck Kranebitten

Altitude Profile

Advertisement - Login to hide

EDDM

Details ICAO EDDM (MUC)
Name Muenchen Franz-Josef Strauss
Region Germany - Civil
Timezone Europe/Berlin (UTC+2.0)
Stats Elevation 1,487 ft / 453 m (AMSL)
Location 48.353786° 11.786117°
Runways 2
Magnetic Variation 3.216° E

METAR

EDDM 261950Z 34002KT CAVOK 18/14 Q1021 NOSIG

Decode

TAF

TAF EDDM 261700Z 2618/2724 07004KT CAVOK

Decode

Departure Runways

ID Width Length Bearing (true) Bearing (mag) Surface Threshold Offset Overrun Length
08L 197 ft / 60 m 13,086 ft / 3,989 m 83.38° 80.16° Concrete 0 ft / 0 m 0 ft / 0 m
08R 197 ft / 60 m 13,086 ft / 3,989 m 83.37° 80.15° Concrete 0 ft / 0 m 0 ft / 0 m
26L 197 ft / 60 m 13,086 ft / 3,989 m 263.41° 260.19° Concrete 0 ft / 0 m 0 ft / 0 m
26R 197 ft / 60 m 13,086 ft / 3,989 m 263.42° 260.20° Concrete 0 ft / 0 m 0 ft / 0 m

LOWI

Details ICAO LOWI (INN)
Name Innsbruck Kranebitten
Region Austria
Timezone Europe/Vienna (UTC+2.0)
Stats Elevation 1,906 ft / 581 m (AMSL)
Location 47.260226° 11.343967°
Runways 1
Magnetic Variation 3.072° E

METAR

LOWI 261950Z 25008KT 9999 FEW070 BKN300 20/14 Q1021 NOSIG

Decode

TAF

TAF LOWI 261715Z 2618/2718 09007KT 9999 SCT070 TX28/2713Z TN14/2704Z BECMG 2618/2620 27004KT CAVOK BECMG 2709/2711 09006KT 9999 FEW070 TEMPO 2714/2718 09013KT SCT070 FEW070CB PROB30 TEMPO 2714/2718 VRB15G25KT TSRA SCT060CB BKN080

Decode

Destination Runways

ID Width Length Bearing (true) Bearing (mag) Surface Threshold Offset Overrun Length
08 148 ft / 45 m 6,545 ft / 1,995 m 81.02° 77.95° Asphalt 338 ft / 103 m 0 ft / 0 m
26 148 ft / 45 m 6,545 ft / 1,995 m 261.04° 257.97° Asphalt 0 ft / 0 m 0 ft / 0 m

Approach Navaids

Runway Type Ident Frequency Range Bearing (true) Bearing (mag) Slope Elevation
26 Localiser OEV 111.10 MHz 27 nm / 50 km 256.00° 252.93° - 1,906 ft / 581 m (AMSL)
26 Localiser OEJ 109.70 MHz 30 nm / 56 km 69.00° 65.93° - 1,906 ft / 581 m (AMSL)
26 Glidescope OEV 111.10 MHz 18 nm / 33 km 256.00° 252.93° 3.80° 1,911 ft / 582 m (AMSL)
26 DME OEJ 109.70 MHz 30 nm / 56 km - - - 1,906 ft / 581 m (AMSL)
26 DME OEV 111.10 MHz 27 nm / 50 km - - - 1,911 ft / 582 m (AMSL)

Popular Alternatives